This demonstration page uses our WeatherBlox Daily Observations layout. Learn more.

Left ArrowRight Arrow

Hourly Observations for June 9, 2021

Temp ( °F °C ) Dew Point ( °F °C ) Humidity (%) Winds ( mph kmh ) Pressure ( in mb ) Visibility ( mi km ) Precip ( " mm )
12:59 am 00:59 Mostly Cloudy 80 26.7 69 20.6 69 69 SW 9 15 30.09 1019 10 16 0.00 0.00
1:59 am 01:59 Mostly Cloudy 78 25.6 69 20.6 74 74 SW 9 15 30.08 1019 10 16 0.00 0.00
2:59 am 02:59 Mostly Cloudy 77 25 69 20.6 77 77 SW 8 13 30.08 1019 10 16 0.00 0.00
3:59 am 03:59 Mostly Cloudy 76 24.4 69 20.6 79 79 SSW 8 13 30.07 1018 10 16 0.00 0.00
4:59 am 04:59 Mostly Cloudy 76 24.4 69 20.6 79 79 SW 9 15 30.07 1018 10 16 0.00 0.00
5:59 am 05:59 Mostly Cloudy 76 24.4 69 20.6 79 79 SW 10 17 30.06 1018 10 16 0.00 0.00
6:59 am 06:59 Mostly Sunny 76 24.4 69 20.6 79 79 SW 10 17 30.07 1018 10 16 0.00 0.00
7:59 am 07:59 Mostly Cloudy 78 25.6 70 21.1 76 76 SW 10 17 30.07 1018 10 16 0.00 0.00
8:59 am 08:59 Mostly Cloudy 81 27.2 71 21.7 72 72 SW 7 11 30.07 1018 10 16 0.00 0.00
9:59 am 09:59 Mostly Cloudy 83 28.3 71 21.7 67 67 WSW 7 11 30.07 1018 10 16 0.00 0.00
10:59 am 10:59 Mostly Cloudy 86 30 72 22.2 63 63 W 10 17 30.08 1019 10 16 0.00 0.00
11:59 am 11:59 Mostly Cloudy 86 30 72 22.2 63 63 W 9 15 30.08 1019 10 16 0.00 0.00
12:59 pm 12:59 Mostly Cloudy 87 30.6 72 22.2 61 61 SW 9 15 30.06 1018 10 16 0.00 0.00
1:59 pm 13:59 Mostly Cloudy 89 31.7 72 22.2 57 57 W 8 13 30.05 1018 10 16 0.00 0.00
2:51 pm 14:51 Mostly Cloudy with Thunderstorms 88 31.1 72 22.2 59 59 SW 12 19 30.03 1017 10 16 0.00 0.00
2:59 pm 14:59 Mostly Cloudy with Thunderstorms 86 30 72 22.2 63 63 SW 6 9 30.02 1017 10 16 0.00 0.00
3:11 pm 15:11 Mostly Cloudy 86 30 71 21.7 61 61 SW 8 13 30.03 1017 10 16 0.00 0.00
3:27 pm 15:27 Mostly Cloudy with Thunderstorms 86 30 71 21.7 61 61 WSW 8 13 30.02 1017 10 16 0.00 0.00
3:59 pm 15:59 Cloudy with Thunderstorms 81 27.2 70 21.1 69 69 WNW 23 37 30.03 1017 5 8 0.00 0.00
4:13 pm 16:13 Cloudy with Thunderstorms 80 26.7 70 21.1 71 71 WNW 18 30 30.03 1017 9 14 0.00 0.00
4:59 pm 16:59 Cloudy with Thunderstorms 77 25 71 21.7 82 82 WSW 9 15 30.01 1016 4 6 0.00 0.00
5:27 pm 17:27 Cloudy with Light Rain 77 25 72 22.2 85 85 WNW 6 9 30.01 1016 4 6 0.00 0.00
5:59 pm 17:59 Cloudy 78 25.6 73 22.8 85 85 W 5 7 30.03 1017 8 13 0.00 0.00
6:59 pm 18:59 Cloudy 77 25 72 22.2 85 85 WNW 7 11 30.02 1017 9 14 0.01 0.25
7:59 pm 19:59 Cloudy 75 23.9 70 21.1 84 84 WNW 7 11 30.01 1016 10 16 0.00 0.00
8:59 pm 20:59 Mostly Cloudy 75 23.9 70 21.1 84 84 NNE 3 6 30.04 1017 10 16 0.00 0.00
9:30 pm 21:30 Mostly Cloudy 74 23.3 70 21.1 88 88 Calm 30.05 1018 10 16 0.00 0.00
9:59 pm 21:59 Mostly Cloudy 73 22.8 70 21.1 90 90 Calm 30.04 1017 9 14 0.00 0.00
10:59 pm 22:59 Cloudy 75 23.9 72 22.2 90 90 E 5 7 30.05 1018 9 14 0.00 0.00
11:14 pm 23:14 Cloudy 75 23.9 71 21.7 88 88 SSE 5 7 30.05 1018 9 14 0.00 0.00
11:59 pm 23:59 Cloudy 74 23.3 71 21.7 91 91 S 5 7 30.03 1017 8 13 0.00 0.00

Powered by AerisWeather